Appleton, WI

7:19 AM CDT on October 15, 2019 (GMT -0500)
Outagamie County Regional

Weather History for KATW - August, 2019

Change the Weather History Date:

Sunday, August 25, 2019

  Actual Average Record
Temperature  
Mean Temperature 63 °F -  
Max Temperature 73 °F 79 °F 95 °F (1948)
Min Temperature 53 °F 60 °F 43 °F (1958)
Degree Days  
Heating Degree Days 2    
Growing Degree Days 13 (Base 50)    
Moisture  
Dew Point 51 °F    
Average Humidity 70    
Maximum Humidity 100    
Minimum Humidity 50    
Precipitation  
Precipitation 0.00 in - - ()
Sea Level Pressure  
Sea Level Pressure 30.14 in    
Wind  
Wind Speed 4 mph ()    
Max Wind Speed 17 mph    
Max Gust Speed 17 mph    
Visibility 10.0 miles    
Events      
Averages and records for this station are not official NWS values.
T = Trace of Precipitation, MM = Missing Value Source: Averaged Metar Reports

Daily Weather History Graph

Daily Weather History Graph

Search for Another Location

Airport or City:

Astronomy

Aug. 25, 2019 Rise Set
Actual Time 6:08 AM CDT 7:42 PM CDT
Civil Twilight 5:38 AM CDT 8:13 PM CDT
Nautical Twilight 5:01 AM CDT 8:50 PM CDT
Astronomical Twilight 4:21 AM CDT 9:29 PM CDT
Moon 12:36 AM CDT (8/25) 4:11 PM CDT (8/25)
Length of Visible Light 14h 35m
Length of Day
13h 34m
Waning Crescent, 29% of the Moon is Illuminated
Aug 25
Waning Crescent
Aug 30
New
Sep 5
First Quarter
Sep 13
Full
Sep 21
Last Quarter

Hourly Weather History & Observations

Time (CDT) Temp. Dew Point Humidity Pressure Visibility Wind Dir Wind Speed Gust Speed Precip Events Conditions
12:15 AM 59.0 °F 46.4 °F 63% 30.22 in 10.0 mi ESE 4.6 mph - N/A   Clear
12:35 AM 59.0 °F 46.4 °F 63% 30.22 in 10.0 mi ESE 4.6 mph - N/A   Clear
12:55 AM 59.0 °F 46.4 °F 63% 30.21 in 10.0 mi ESE 4.6 mph - N/A   Clear
1:15 AM 59.0 °F 46.4 °F 63% 30.21 in 10.0 mi East 3.5 mph - N/A   Clear
1:35 AM 59.0 °F 46.4 °F 63% 30.20 in 10.0 mi East 4.6 mph - N/A   Clear
1:55 AM 59.0 °F 48.2 °F 67% 30.19 in 10.0 mi ESE 4.6 mph - N/A   Clear
2:15 AM 59.0 °F 48.2 °F 67% 30.19 in 10.0 mi ESE 3.5 mph - N/A   Clear
2:35 AM 59.0 °F 48.2 °F 67% 30.19 in 10.0 mi Calm Calm - N/A   Clear
2:55 AM 55.4 °F 46.4 °F 72% 30.19 in 10.0 mi Calm Calm - N/A   Clear
3:15 AM 55.4 °F 46.4 °F 72% 30.18 in 10.0 mi Calm Calm - N/A   Clear
3:35 AM 55.4 °F 48.2 °F 77% 30.18 in 10.0 mi Calm Calm - N/A   Clear
3:55 AM 59.0 °F 50.0 °F 72% 30.19 in 10.0 mi ENE 3.5 mph - N/A   Clear
4:15 AM 53.6 °F 46.4 °F 77% 30.18 in 10.0 mi Calm Calm - N/A   Clear
4:35 AM 53.6 °F 48.2 °F 82% 30.19 in 10.0 mi Calm Calm - N/A   Scattered Clouds
4:55 AM 53.6 °F 50.0 °F 88% 30.18 in 10.0 mi NE 3.5 mph - N/A   Scattered Clouds
5:15 AM 53.6 °F 51.8 °F 94% 30.18 in 10.0 mi North 3.5 mph - N/A   Clear
5:22 AM 55.4 °F 53.6 °F 94% 30.18 in 10.0 mi Calm Calm - N/A   Scattered Clouds
5:45 AM 53.6 °F 53.6 °F 100% 30.19 in 10.0 mi Calm Calm - N/A   Mostly Cloudy
6:45 AM 57.2 °F 55.4 °F 94% 30.18 in 10.0 mi Calm Calm - N/A   Mostly Cloudy
7:45 AM 62.6 °F 60.8 °F 94% 30.19 in 10.0 mi Calm Calm - N/A   Mostly Cloudy
8:45 AM 66.2 °F 57.2 °F 73% 30.17 in 10.0 mi SSE 9.2 mph 17.3 mph N/A   Mostly Cloudy
10:45 AM 69.8 °F 53.6 °F 56% 30.16 in 10.0 mi SE 9.2 mph - N/A   Mostly Cloudy
11:15 AM 69.8 °F 55.4 °F 60% 30.15 in 10.0 mi ESE 10.4 mph - N/A   Mostly Cloudy
11:45 AM 71.6 °F 55.4 °F 57% 30.15 in 10.0 mi SE 13.8 mph - N/A   Mostly Cloudy
12:45 PM 69.8 °F 55.4 °F 60% 30.13 in 10.0 mi ESE 8.1 mph - N/A   Mostly Cloudy
1:45 PM 71.6 °F 53.6 °F 53% 30.12 in 10.0 mi SE 10.4 mph - N/A   Mostly Cloudy
2:45 PM 73.4 °F 53.6 °F 50% 30.09 in 10.0 mi SE 10.4 mph - N/A   Mostly Cloudy
3:45 PM 71.6 °F 53.6 °F 53% 30.08 in 10.0 mi SE 10.4 mph - N/A   Mostly Cloudy
4:45 PM 71.6 °F 53.6 °F 53% 30.05 in 10.0 mi SE 11.5 mph - N/A   Mostly Cloudy
5:45 PM 68.0 °F 53.6 °F 60% 30.04 in 10.0 mi SE 17.3 mph - N/A   Mostly Cloudy
7:45 PM 66.2 °F 53.6 °F 64% 30.04 in 10.0 mi SE 9.2 mph - N/A   Mostly Cloudy
8:45 PM 66.2 °F 53.6 °F 64% 30.02 in 10.0 mi ESE 5.8 mph - N/A   Mostly Cloudy
10:45 PM 64.4 °F 57.2 °F 77% 30.02 in 10.0 mi East 4.6 mph - N/A   Mostly Cloudy
10:55 PM 64.4 °F 51.8 °F 64% 30.01 in 10.0 mi East 5.8 mph - N/A   Clear
11:15 PM 64.4 °F 51.8 °F 64% 30.01 in 10.0 mi East 6.9 mph - N/A   Clear
11:35 PM 62.6 °F 51.8 °F 68% 30.01 in 10.0 mi East 4.6 mph - N/A   Light Drizzle
11:55 PM 62.6 °F 51.8 °F 68% 30.00 in 10.0 mi East 5.8 mph - N/A   Scattered Clouds